Tracking 19246 objects as of 20-Aug-2018
HD Live streaming from Space Station
objects crossing your sky now

COSMOS 2023 (GLONASS)

Track COSMOS 2023 (GLONASS) now!
COSMOS 2023 (GLONASS) is classified as:


NORAD ID: 20025
Int'l Code: 1989-039B
Perigee: 19,091.5 km
Apogee: 19,182.2 km
Inclination: 65.3 °
Period: 675.7 minutes
Semi major axis: 25507 km
RCS: 1.297 m2 (large)
Launch date: May 31, 1989
Source: Commonwealth of Independent States (former USSR) (CIS)
Launch site: TYURATAM MISSILE AND SPACE COMPLEX (TTMTR)
SV:
aabbcc
Your satellite tracking list
Your tracking list is empty




NASA's NSSDC Master Catalog

Two Line Element Set (TLE):
1 20025U 89039B   18231.28820222 -.00000024 +00000-0 +00000-0 0  9996
2 20025 065.2506 048.3876 0017777 199.6006 040.4847 02.13103945227333
Source of the keplerian elements: AFSPC